Terrell, TX

9:00 AM CDT on April 26, 2017 (GMT -0500)
Terrell Municipal

Weather History for KTRL - April, 2013

Change the Weather History Date:

Sunday, April 7, 2013

  Actual Average (KGVT) Record (KGVT)
Temperature  
Mean Temperature 66 °F -  
Max Temperature 73 °F 70 °F 86 °F (2006)
Min Temperature 60 °F 53 °F 32 °F (2009)
Cooling Degree Days 2    
Growing Degree Days 16 (Base 50)    
Moisture  
Dew Point 58 °F    
Average Humidity 73    
Maximum Humidity 83    
Minimum Humidity 61    
Precipitation  
Precipitation 0.00 in - - ()
Sea Level Pressure  
Sea Level Pressure 29.86 in    
Wind  
Wind Speed 11 mph (SSE)    
Max Wind Speed 18 mph    
Max Gust Speed 28 mph    
Visibility 9 miles    
Events      
Averages and records for this station are not official NWS values.
T = Trace of Precipitation, MM = Missing Value Source: NWS Daily Summary

Daily Weather History Graph

Daily Weather History Graph

Search for Another Location

Airport or City:

Trip Planner

Search our weather history database for the weather conditions in past years. The results will help you decide how hot, cold, wet, or windy it might be!

Date:

Astronomy

Apr. 07, 2013 Rise Set
Actual Time 7:05 AM CDT 7:49 PM CDT
Civil Twilight 6:40 AM CDT 8:14 PM CDT
Nautical Twilight 6:10 AM CDT 8:44 PM CDT
Astronomical Twilight 5:40 AM CDT 9:14 PM CDT
Moon 5:14 AM CDT (4/7) 5:29 PM CDT (4/7)
Length of Visible Light 13h 34m
Length of Day
12h 44m
Waning Crescent, 8% of the Moon is Illuminated
Apr 7
Waning Crescent
Apr 10
New
Apr 18
First Quarter
Apr 25
Full
May 2
Last Quarter

Hourly Weather History & Observations

Time (CDT) Temp. Dew Point Humidity Pressure Visibility Wind Dir Wind Speed Gust Speed Precip Events Conditions
12:53 AM 62.1 °F 55.0 °F 78% 29.90 in 8.0 mi South 8.1 mph - N/A   Clear
1:53 AM 61.0 °F 55.0 °F 81% 29.90 in 9.0 mi SSE 9.2 mph - N/A   Clear
2:53 AM 61.0 °F 55.0 °F 81% 29.89 in 10.0 mi South 8.1 mph - N/A   Clear
3:53 AM 60.1 °F 55.0 °F 83% 29.89 in 9.0 mi SSE 9.2 mph - N/A   Clear
4:10 AM 60.8 °F 55.4 °F 82% 29.91 in 9.0 mi South 10.4 mph - N/A   Mostly Cloudy
4:53 AM 61.0 °F 55.9 °F 83% 29.89 in 10.0 mi SSE 9.2 mph - N/A   Overcast
5:53 AM 61.0 °F 55.9 °F 83% 29.90 in 10.0 mi South 9.2 mph - N/A   Overcast
6:53 AM 61.0 °F 55.9 °F 83% 29.91 in 9.0 mi South 11.5 mph - N/A   Overcast
7:53 AM 61.0 °F 55.9 °F 83% 29.92 in 8.0 mi SSE 10.4 mph - N/A   Overcast
8:53 AM 63.0 °F 57.0 °F 81% 29.93 in 9.0 mi South 15.0 mph - N/A   Overcast
9:53 AM 64.0 °F 57.9 °F 80% 29.93 in 9.0 mi South 12.7 mph - N/A   Overcast
10:53 AM 66.9 °F 59.0 °F 76% 29.93 in 9.0 mi South 10.4 mph - N/A   Overcast
11:53 AM 68.0 °F 57.9 °F 70% 29.92 in 10.0 mi South 18.4 mph - N/A   Overcast
12:53 PM 70.0 °F 59.0 °F 68% 29.89 in 10.0 mi South 16.1 mph 27.6 mph N/A   Overcast
1:53 PM 70.0 °F 59.0 °F 68% 29.86 in 10.0 mi South 16.1 mph 23.0 mph N/A   Overcast
2:53 PM 71.1 °F 59.0 °F 66% 29.83 in 10.0 mi South 16.1 mph - N/A   Overcast
3:25 PM 71.6 °F 59.0 °F 64% 29.83 in 8.0 mi South 17.3 mph 23.0 mph N/A   Overcast
3:53 PM 72.0 °F 59.0 °F 64% 29.81 in 10.0 mi SSE 17.3 mph - N/A   Overcast
4:53 PM 72.0 °F 59.0 °F 64% 29.79 in 10.0 mi SSE 16.1 mph 21.9 mph N/A   Overcast
5:53 PM 73.0 °F 59.0 °F 61% 29.78 in 10.0 mi South 15.0 mph - N/A   Overcast
6:53 PM 73.0 °F 59.0 °F 61% 29.77 in 10.0 mi SSE 12.7 mph - N/A   Overcast
7:53 PM 71.1 °F 59.0 °F 66% 29.78 in 9.0 mi SSE 9.2 mph - N/A   Overcast
8:53 PM 69.1 °F 59.0 °F 70% 29.78 in 9.0 mi SSE 8.1 mph - N/A   Scattered Clouds
9:53 PM 69.1 °F 59.0 °F 70% 29.78 in 10.0 mi SSE 12.7 mph - N/A   Clear
10:53 PM 69.1 °F 57.9 °F 68% 29.78 in 10.0 mi SSE 16.1 mph 25.3 mph N/A   Clear
11:53 PM 68.0 °F 57.9 °F 70% 29.77 in 10.0 mi SSE 17.3 mph 27.6 mph N/A   Clear